Regional Weather Roundup
Issued by NWS Newport/Morehead, NC

Current Version | Previous Version | Text Only | Print | Product List | Glossary On
Versions: 1 2 3 4 5 6 7 8 9 10 11 12 13 14 15 16 17 18 19 20 21 22 23 24 25 26 27 28 29 30 31 32 33 34 35 36 37 38 39 40 41 42 43 44 45 46 47 48 49 50
000 ASUS42 KMHX 210013 RWRMHX WEATHER ROUNDUP FOR EASTERN NORTH CAROLINA NATIONAL WEATHER SERVICE NEWPORT/MOREHEAD CITY NC 700 PM EST MON NOV 20 2017 NOTE: "FAIR" INDICATES FEW OR NO CLOUDS BELOW 12,000 FEET WITH NO SIGNIFICANT WEATHER AND/OR OBSTRUCTIONS TO VISIBILITY NCZ015>017-031-032-045>047-102-103-210100- NORTH COAST CITY SKY/WX TMP DP RH WIND PRES REMARKS EDENTON CLEAR 41 36 81 CALM 30.25F ELIZABETH CITY CLEAR 38 34 85 S3 30.25S KITTY HAWK CLEAR 44 33 64 CALM 30.25S MANTEO CLEAR 39 35 85 CALM 30.27R $$ NCZ045>047-081-094-103-104-210100- CENTRAL COAST CITY SKY/WX TMP DP RH WIND PRES REMARKS FRISCO CLEAR 38 35 89 E3 30.26S $$ NCZ095-097-098-100-101-210100- SOUTHERN COAST CITY SKY/WX TMP DP RH WIND PRES REMARKS BEAUFORT PTCLDY 45 38 76 E3 30.26S CEDAR ISLAND NOT AVBL JACKSONVILLE CLOUDY 40 38 93 CALM 30.25S PINEY ISLAND N/A N/A N/A N/A SW3 30.26R WILMINGTON PTCLDY 43 37 79 CALM 30.25S $$ NCZ011>013-027>030-043-044-078>080-089-090>093-098-210100- COASTAL PLAIN CITY SKY/WX TMP DP RH WIND PRES REMARKS AHOSKIE CLEAR 37 33 85 CALM 30.25S CLINTON CLOUDY 42 33 70 CALM 30.26R ELIZABETHTOWN NOT AVBL GOLDSBORO CLOUDY 43 32 65 CALM 30.23R GREENVILLE CLEAR 41 34 75 CALM 30.25S HAVELOCK PTCLDY 43 39 86 E3 30.27R KENANSVILLE PTCLDY 37 32 81 CALM 30.25S KINSTON CLEAR 37 34 87 CALM 30.25S NEW BERN CLEAR 39 36 89 CALM 30.26S RICHLANDS CLOUDY 39 36 89 CALM 30.26S ROCKY MOUNT CLEAR 39 35 86 CALM 30.25R WASHINGTON CLEAR 41 35 80 CALM 30.26S WHITEVILLE CLOUDY 44 35 69 CALM 30.24S $$ AMZ130-135-150-152-154-156-158-170-250-252-270-ANZ085-086-088-633-658-670-210100- MARINE OBSERVATIONS STATION/POSITION TIME TEMP WIND PRES WAVE SWELL AIR SEA DIR/SP/G HT/PER HT/PER (UTC) (F) (DEG/KT/KT) (MB) (FT/S) (FT/S) CHESAPEAKE LIGHT NOT AVBL 64 E VA BEACH 2350 51 60 310/ 6/ 8 1024.9 3/ 6 3/ 6 DUCK 2348 50 60 190/ 4/ 5 1024.1 2 E DUCK 0000 61 N/A 2/ 7 OREGON INLET 2348 300/ 2/ 2 1024.6 13E OREGON INLT 2348 62 N/A 4/ 7 3/ 7 HATTERAS CG 2348 49 58 70/ 3/ 3 1024.5 DIAMOND BUOY 2350 54 67 10/ 6/ 8 1024.9 3/ 8 3/ 8 CAPE LOOKOUT 0000 10/ 6/ 7 1024.8 BEAUFORT LAB 2348 49 59 60/ 4/ 5 1024.4 30 SE NEW RVR IN 2308 56 67 90/ 4/ 10 1024.5 30 SE NEW RVR IN 0000 68 N/A 2/ 9 27 SE WRIGHTSVLE 2308 56 68 70/ 6/ 10 1024.0 5 SE WRIGHTSVLE 2308 57 64 90/ 4/ 6 1024.1 225 S CAPE HAT 2350 67 76 60/ 14/ 17 1022.6 5/ 7 3/ 7 41 SE CHARLESTON 2350 62 73 70/ 10/ 16 1023.4 3/ 6 2/ 6 $$

USA.gov is the U.S. government's official web portal to all federal, state and local government web resources and services.